This demonstration page uses our WeatherBlox Daily Observations layout. Learn more.

Hourly Observations for April 29, 2015

Temp ( °F °C ) Dew Point ( °F °C ) Humidity (%) Winds ( mph kmh ) Pressure ( in mb ) Visibility ( mi km ) Precip ( " mm )
12:15 am 00:15 Clear 46 7.7 36 2.4 69 69 Calm 30.15 1021 10 16.0934 0 0
12:35 am 00:35 Clear 44 6.5 36 2 73 73 NNW 3 6 30.18 1022 10 16.0934 0 0
12:55 am 00:55 Clear 46 7.6 36 2.1 68 68 NNW 3 6 30.15 1021 10 16.0934 0 0
1:15 am 01:15 Clear 44 6.5 35 1.8 72 72 NNW 3 6 30.18 1022 10 16.0934 0 0
1:35 am 01:35 Clear 43 6 35 1.5 73 73 N 3 6 30.18 1022 10 16.0934 0 0
1:55 am 01:55 Clear 41 4.9 34 1.3 78 78 N 3 6 30.18 1022 10 16.0934 0 0
2:15 am 02:15 Clear 40 4.4 33 0.6 77 77 NW 3 6 30.18 1022 10 16.0934 0 0
2:35 am 02:35 Clear 41 5.1 34 1.3 77 77 NW 5 7 30.18 1022 10 16.0934 0 0
2:55 am 02:55 Clear 40 4.2 34 1.2 81 81 WNW 3 6 30.18 1022 10 16.0934 0 0
3:15 am 03:15 Clear 41 4.8 35 1.5 79 79 W 5 7 30.18 1022 10 16.0934 0 0
3:35 am 03:35 Clear 40 4.3 34 1.2 80 80 NW 3 6 30.18 1022 10 16.0934 0 0
3:55 am 03:55 Clear 40 4.6 34 1.2 79 79 NNW 3 6 30.18 1022 10 16.0934 0 0
4:15 am 04:15 Clear 39 3.7 33 0.7 81 81 Calm 30.18 1022 10 16.0934 0 0
4:35 am 04:35 Clear 37 3 33 0.3 83 83 Calm 30.21 1023 10 16.0934 0 0
4:55 am 04:55 Clear 38 3.1 33 0.6 84 84 NW 5 7 30.21 1023 10 16.0934 0 0
5:15 am 05:15 Clear 38 3.6 33 0.7 82 82 Calm 30.18 1022 10 16.0934 0 0
5:35 am 05:35 Clear 37 2.8 33 0.5 85 85 Calm 30.21 1023 10 16.0934 0 0
5:55 am 05:55 Clear 37 3 33 0.7 85 85 NW 5 7 30.21 1023 10 16.0934 0 0
6:15 am 06:15 Clear 37 3 33 0.5 84 84 NW 5 7 30.21 1023 10 16.0934 0 0
6:35 am 06:35 Clear 37 2.9 33 0.7 86 86 NW 5 7 30.21 1023 10 16.0934 0 0
6:55 am 06:55 Sunny 37 2.7 33 0.6 86 86 NW 5 7 30.21 1023 10 16.0934 0 0
7:15 am 07:15 Sunny 38 3.3 34 1 85 85 Calm 30.21 1023 10 16.0934 0 0
7:35 am 07:35 Sunny 40 4.4 36 2.1 85 85 NW 3 6 30.18 1022 10 16.0934 0 0
7:55 am 07:55 Sunny 43 6.2 38 3.2 81 81 NNW 3 6 30.18 1022 10 16.0934 0 0
8:15 am 08:15 Sunny 47 8.3 40 4.4 77 77 Calm 30.15 1021 10 16.0934 0 0
8:35 am 08:35 Sunny 50 9.9 41 5 72 72 Calm 30.15 1021 10 16.0934 0 0
8:55 am 08:55 Sunny 52 11.1 41 4.9 66 66 Calm 30.12 1020 10 16.0934 0 0
9:15 am 09:15 Sunny 54 12.2 40 4.4 59 59 Calm 30.12 1020 10 16.0934 0 0
9:35 am 09:35 Sunny 55 13 40 4.5 57 57 Calm 30.12 1020 10 16.0934 0 0
9:55 am 09:55 Sunny 56 13.5 40 4.3 54 54 Calm 30.09 1019 10 16.0934 0 0
10:15 am 10:15 Sunny 58 14.3 40 4.3 51 51 Calm 30.09 1019 10 16.0934 0 0
10:35 am 10:35 Sunny 59 15.1 40 4.2 48 48 Calm 30.06 1018 10 16.0934 0 0
10:55 am 10:55 Sunny 60 15.6 40 4.3 47 47 ENE 5 7 30.06 1018 10 16.0934 0 0
11:15 am 11:15 Sunny 61 16.1 39 3.9 44 44 ENE 5 7 30.06 1018 10 16.0934 0 0
11:35 am 11:35 Sunny 62 16.5 38 3.5 42 42 SSE 3 6 30.03 1017 10 16.0934 0 0
11:55 am 11:55 Sunny 62 16.7 38 3.4 41 41 Calm 30.03 1017 10 16.0934 0 0
12:15 pm 12:15 Sunny 64 17.8 39 3.8 40 40 SSW 3 6 30 1016 10 16.0934 0 0
12:35 pm 12:35 Sunny 64 17.8 39 3.7 39 39 SSW 5 7 30 1016 10 16.0934 0 0
12:55 pm 12:55 Sunny 64 18 38 3.3 38 38 ESE 5 7 30 1016 10 16.0934 0 0
1:15 pm 13:15 Partly Cloudy 67 19.2 39 4 37 37 Calm 30 1016 10 16.0934 0 0
1:35 pm 13:35 Mostly Cloudy 65 18.4 37 2.8 36 36 WNW 3 6 29.97 1015 10 16.0934 0 0
1:55 pm 13:55 Partly Cloudy 66 18.9 37 3 35 35 NE 7 11 29.97 1015 10 16.0934 0 0
2:15 pm 14:15 Mostly Cloudy 66 18.9 37 2.6 34 34 NNE 3 6 29.97 1015 10 16.0934 0 0
2:35 pm 14:35 Mostly Cloudy 66 18.9 36 2.4 33 33 NW 5 7 29.97 1015 10 16.0934 0 0
2:55 pm 14:55 Partly Cloudy 67 19.5 37 2.7 33 33 W 5 7 29.94 1014 10 16.0934 0 0
3:15 pm 15:15 Partly Cloudy 68 20.1 37 2.7 32 32 SSW 3 6 29.91 1013 10 16.0934 0 0
3:35 pm 15:35 Sunny 69 20.8 38 3.1 31 31 W 7 11 29.91 1013 10 16.0934 0 0
3:55 pm 15:55 Sunny 69 20.4 37 3 32 32 S 5 7 29.91 1013 10 16.0934 0 0
4:15 pm 16:15 Partly Cloudy 68 20.2 36 2.3 31 31 E 7 11 29.91 1013 10 16.0934 0 0
4:35 pm 16:35 Partly Cloudy 69 20.6 36 2.2 30 30 Calm 29.91 1013 10 16.0934 0 0
4:55 pm 16:55 Mostly Cloudy 70 20.9 37 2.8 30 30 NE 3 6 29.88 1012 10 16.0934 0 0
5:15 pm 17:15 Partly Cloudy 69 20.3 37 2.9 32 32 Calm 29.88 1012 10 16.0934 0 0
5:35 pm 17:35 Partly Cloudy 69 20.4 36 2.3 30 30 Calm 29.88 1012 10 16.0934 0 0
5:55 pm 17:55 Partly Cloudy 70 21 37 2.8 30 30 E 6 9 29.88 1012 10 16.0934 0 0
6:15 pm 18:15 Sunny 69 20.6 37 2.6 31 31 E 7 11 29.88 1012 10 16.0934 0 0
6:35 pm 18:35 Sunny 69 20.5 37 3 32 32 Calm 29.88 1012 10 16.0934 0 0
6:55 pm 18:55 Partly Cloudy 69 20.5 36 2.2 30 30 ESE 7 11 29.88 1012 10 16.0934 0 0
7:15 pm 19:15 Sunny 68 20.1 36 2.3 31 31 ESE 6 9 29.88 1012 10 16.0934 0 0
7:35 pm 19:35 Sunny 67 19.7 37 3 33 33 E 8 13 29.88 1012 10 16.0934 0 0
7:55 pm 19:55 Sunny 66 19 37 2.5 33 33 E 6 9 29.91 1013 10 16.0934 0 0
8:15 pm 20:15 Sunny 63 17.3 37 2.8 38 38 E 8 13 29.91 1013 10 16.0934 0 0
8:35 pm 20:35 Clear 61 16.3 37 2.5 40 40 E 10 17 29.91 1013 10 16.0934 0 0
8:55 pm 20:55 Clear 60 15.7 36 2.3 41 41 E 8 13 29.91 1013 10 16.0934 0 0
9:15 pm 21:15 Clear 56 13.6 37 2.5 47 47 E 9 15 29.94 1014 10 16.0934 0 0
9:35 pm 21:35 Clear 53 11.8 37 2.6 54 54 ESE 9 15 29.97 1015 10 16.0934 0 0
9:55 pm 21:55 Clear 54 12 37 2.8 54 54 E 9 15 29.97 1015 10 16.0934 0 0
10:15 pm 22:15 Clear 52 11.2 37 2.7 56 56 ESE 8 13 29.97 1015 10 16.0934 0 0
10:35 pm 22:35 Clear 52 11.2 37 2.5 55 55 ESE 9 15 29.97 1015 10 16.0934 0 0
10:55 pm 22:55 Clear 51 10.4 36 2.3 58 58 ESE 8 13 29.97 1015 10 16.0934 0 0
11:15 pm 23:15 Clear 50 10.1 36 2.1 58 58 ESE 9 15 29.97 1015 10 16.0934 0 0
11:35 pm 23:35 Clear 50 9.8 35 1.6 57 57 ESE 7 11 29.97 1015 10 16.0934 0 0
11:55 pm 23:55 Clear 48 9 35 1.5 60 60 ESE 8 13 29.97 1015 10 16.0934 0 0

Powered by AerisWeather